Probability
25 29 37 44 45 44 43 42 40 40 40 38 35 29 22 16 13 13 12 10 8 7 5 4 4 3 2 2 2 2 2 2 2 1 0 0 0 0 0 0 0 0 0
19 25 34 40 39 36 37 38 37 36 36 36 34 28 21 15 12 10 8 7 6 5 4 4 4 3 3 1 1 1 1 1 1 0 0 0 0 0 0 0 0 0 0
15 22 30 34 31 28 29 31 30 29 30 32 31 26 20 13 9 6 5 4 4 4 3 3 4 4 4 1 0 0 0 0 0 0 0 0 0 0 0 0 0 0 0
17 21 25 26 25 24 24 24 24 23 24 25 24 22 17 11 6 5 5 5 6 6 5 5 5 5 4 1 0 0 0 0 0 0 0 0 0 0 0 0 0 0 0
15 18 19 18 19 18 18 18 19 18 18 17 18 17 14 10 7 6 6 8 9 8 7 5 4 3 2 0 0 0 0 0 0 0 0 0 0 0 0 0 0 0 0
10 10 12 12 12 12 13 14 15 15 14 13 14 14 13 11 9 8 8 10 10 8 6 4 2 1 0 0 0 0 0 0 0 0 0 0 0 0 0 0 0 0 0
6 5 6 9 10 10 11 11 12 13 13 13 13 13 13 13 12 10 9 10 10 7 5 3 1 0 0 0 0 0 0 0 0 0 0 0 0 0 0 0 0 0 0
3 3 4 7 9 10 10 10 11 12 13 13 13 12 12 13 12 10 8 8 9 7 4 3 2 1 0 0 0 0 0 0 0 0 0 0 0 0 0 0 0 0 0
2 3 4 5 7 8 9 9 9 9 10 11 11 11 11 11 11 8 7 7 7 6 4 3 2 1 0 0 0 0 0 0 0 0 0 0 0 0 0 0 0 0 0
2 3 3 3 4 5 7 7 6 5 6 7 8 8 9 9 9 8 6 6 6 5 3 2 2 1 0 0 0 0 0 0 0 0 0 0 0 0 0 0 0 0 0
3 2 1 1 2 3 4 4 4 3 3 4 5 5 6 7 7 6 6 5 4 3 2 1 1 0 0 0 0 0 0 0 0 0 0 0 0 0 0 0 0 0 0
1 1 0 0 1 2 2 3 3 2 2 3 3 3 4 5 5 5 4 4 3 2 1 0 0 0 0 0 0 0 0 0 0 0 0 0 0 0 0 0 0 0 0
0 0 0 0 0 1 1 1 2 2 2 3 3 3 3 3 4 3 3 3 3 2 1 0 0 0 0 0 0 0 0 0 0 0 0 0 0 0 0 0 0 0 0
0 0 0 0 1 1 1 1 2 2 3 3 3 3 4 4 3 3 3 3 3 2 1 0 0 0 0 0 0 0 0 0 0 0 0 0 0 0 0 0 0 0 0
0 0 0 0 1 2 2 2 3 3 3 3 3 4 5 5 4 3 3 3 3 2 1 0 0 0 0 0 0 0 0 0 0 0 0 0 0 0 0 0 0 0 0
0 0 0 0 1 1 2 2 2 3 3 3 3 4 4 3 3 2 2 2 2 2 1 0 0 0 0 0 0 0 0 0 0 0 0 0 0 0 0 0 0 0 0
0 0 0 0 0 0 1 1 1 1 2 3 2 2 1 1 1 1 1 1 1 1 0 0 0 0 0 0 0 0 0 0 0 0 0 0 0 0 0 0 0 0 0
0 0 0 0 0 0 0 0 0 0 1 2 1 0 0 0 0 0 0 0 0 0 0 0 0 0 0 0 0 0 0 0 0 0 0 0 0 0 0 0 0 0 0
0 0 0 0 0 0 0 0 0 0 0 0 0 0 0 0 0 0 0 0 0 0 0 0 0 0 0 0 0 0 0 0 0 0 0 0 0 0 0 0 0 0 0
0 0 0 0 0 0 0 0 0 0 0 0 0 0 0 0 0 0 0 0 0 0 0 0 0 0 0 0 0 0 0 0 0 0 0 0 0 0 0 0 0 0 0
0 0 0 0 0 0 0 0 0 0 0 0 0 0 0 0 0 0 0 0 0 0 0 0 0 0 0 0 0 0 0 0 0 0 0 0 0 0 0 0 0 0 0
0 0 0 0 0 0 0 0 0 0 0 0 0 0 0 0 0 0 0 0 0 0 0 0 0 0 0 0 0 0 0 0 0 0 0 0 0 0 0 0 0 0 0
0 0 0 0 0 0 0 0 0 0 0 0 0 0 0 0 0 0 0 0 0 0 0 0 0 0 0 0 0 0 0 0 0 0 0 0 0 0 0 0 0 0 0
0 0 0 0 0 0 0 0 0 0 0 0 0 0 0 0 0 0 0 0 0 0 0 0 0 0 0 0 0 0 0 0 0 0 0 0 0 0 0 0 0 0 0
0 0 0 0 0 0 0 0 0 0 0 0 0 0 0 0 0 0 0 0 0 0 0 0 0 0 0 0 0 0 0 0 0 0 0 0 0 0 0 0 0 0 0
0 0 0 0 0 0 0 0 0 0 0 0 0 0 0 0 0 0 0 0 0 0 0 0 0 0 0 0 0 0 0 0 0 0 0 0 0 0 0 0 0 0 0
Wind_Speed
3 3 4 4 5 4 3 4 4 3 3 1 1 1 0 1 0 1 1 1 2 1 1 0 0 0 0 1 1 1 1 1 1 1 3 3 2 2 2 2 2 2 3
3 3 4 4 4 3 3 3 2 2 3 2 2 1 1 1 1 0 0 1 1 1 1 1 0 0 0 1 1 0 0 1 0 1 1 3 4 3 2 1 2 2 2
3 2 3 3 3 2 2 1 1 1 2 2 2 2 2 1 1 1 1 1 1 1 1 1 1 0 0 1 2 1 1 1 1 1 2 1 2 3 3 2 2 2 2
4 3 2 3 3 2 2 1 2 1 1 2 2 3 2 1 2 2 1 1 1 1 1 1 1 1 1 1 2 1 1 1 1 1 1 2 3 2 3 3 2 3 3
3 3 2 3 3 2 2 1 2 1 0 1 2 2 1 1 1 1 1 1 1 1 1 1 1 1 1 1 2 1 1 1 2 2 1 1 1 2 2 3 3 3 3
2 2 2 2 2 2 2 2 1 0 0 0 1 2 2 1 1 1 1 1 1 1 1 1 1 1 1 2 2 2 2 2 2 2 2 2 2 2 2 3 3 3 4
2 2 1 1 2 2 2 2 2 1 1 0 1 1 2 2 2 2 2 1 1 1 2 1 1 1 2 2 2 2 2 2 2 2 2 2 3 2 3 3 3 3 3
2 2 1 2 3 3 2 2 2 1 1 1 2 2 1 1 2 2 2 2 2 2 2 2 2 2 2 2 2 1 2 2 2 3 3 2 3 2 3 3 2 2 2
1 1 1 1 2 2 2 2 2 1 1 1 1 1 1 1 2 2 2 2 2 1 1 1 1 2 2 2 2 2 3 2 2 3 3 3 2 2 2 2 2 3 3
1 1 0 0 1 2 1 1 1 1 1 1 1 1 2 2 1 1 2 2 2 1 1 1 2 2 2 2 1 2 2 2 3 2 3 3 2 2 2 2 2 3 3
1 1 1 0 0 1 1 1 0 0 1 1 1 1 1 1 1 1 2 2 1 1 1 2 1 2 2 1 1 2 2 2 3 3 3 4 3 2 2 2 1 2 2
1 1 1 2 2 1 0 0 0 0 2 1 1 1 2 1 1 2 2 1 1 2 1 1 1 1 2 2 2 3 3 2 3 3 3 4 3 2 2 2 2 2 2
1 1 1 2 1 1 1 1 1 2 1 1 1 1 2 2 2 2 2 1 1 1 1 1 1 1 2 2 3 3 3 3 3 3 3 4 2 3 2 2 2 3 2
1 1 1 2 1 1 1 1 2 2 1 1 1 2 2 2 3 2 1 1 1 1 1 1 1 1 1 2 3 3 3 3 3 3 3 3 3 3 3 3 3 3 2
2 2 1 2 1 1 2 2 2 2 1 1 1 2 2 2 1 1 1 1 1 1 2 1 1 1 1 2 2 2 2 2 3 3 3 3 3 4 3 2 3 2 2
2 2 2 2 1 1 2 3 3 2 1 1 1 2 1 1 1 1 1 1 1 2 1 1 1 1 2 3 4 2 2 2 2 3 4 4 4 5 5 5 5 4 4
2 2 2 2 2 1 1 2 3 2 1 1 1 1 1 1 1 0 0 0 1 1 1 1 1 1 3 4 4 4 2 2 3 3 4 4 4 4 4 5 6 6 7
2 2 2 1 2 1 1 2 2 1 1 1 2 2 1 1 1 0 1 1 1 1 1 1 2 2 4 5 4 4 2 2 3 3 3 3 4 5 4 4 5 5 5
2 2 1 1 1 1 2 2 2 2 1 2 2 2 1 1 1 1 2 2 1 1 2 2 2 2 4 5 4 3 2 2 4 4 4 3 4 6 5 3 4 6 6
2 1 1 1 1 2 1 2 2 2 2 2 2 2 1 1 2 2 2 1 1 1 1 2 2 2 3 4 4 3 1 2 4 4 4 5 5 7 5 3 3 5 6
2 1 1 0 2 2 1 1 2 2 3 3 2 2 1 1 2 1 1 1 1 1 2 2 3 2 3 4 5 3 1 2 3 4 4 4 7 7 7 5 3 6 6
2 1 1 2 2 1 1 1 3 4 3 2 2 2 1 1 1 1 1 1 1 1 2 2 3 3 3 4 4 4 2 2 2 4 4 5 8 9 8 5 6 7 5
2 1 1 2 2 2 1 1 4 3 2 2 2 2 2 1 1 1 1 1 0 0 1 1 2 3 3 4 5 5 5 5 2 3 6 8 9 9 6 7 8 5 2
2 1 1 2 3 3 3 3 3 2 1 1 2 2 2 2 2 1 1 1 1 1 2 2 2 3 3 3 3 3 4 5 4 4 6 7 7 6 6 6 5 3 2
2 1 1 3 4 4 4 4 3 1 1 1 2 2 1 1 1 1 2 2 3 3 3 3 2 2 3 4 3 2 3 3 3 4 3 3 4 5 4 4 3 3 2
2 2 2 3 4 4 4 4 2 1 1 1 2 1 1 1 1 1 3 5 4 5 4 4 4 3 5 5 5 5 5 6 5 2 2 3 3 4 4 4 4 3 3
Wind_Direction
146 135 127 113 99 99 112 120 114 131 136 130 135 138 171 209 205 216 193 184 193 182 159 169 301 10 219 255 257 255 281 276 308 334 314 304 283 267 259 249 231 230 233
80 94 98 97 102 108 118 122 132 139 146 163 169 160 152 227 218 264 311 252 205 176 149 139 155 298 310 308 289 266 275 280 322 139 342 327 325 312 285 270 245 255 258
98 95 89 91 97 107 108 145 153 132 134 132 110 82 66 20 347 316 282 266 228 189 163 161 171 238 221 272 280 255 203 263 277 180 161 186 259 302 309 291 278 278 272
89 79 91 95 102 117 108 100 95 87 107 123 134 140 150 198 241 251 257 285 273 250 208 192 212 239 235 252 265 255 226 200 256 276 217 205 200 225 299 308 293 281 273
110 109 130 153 135 123 117 107 81 80 87 135 144 140 173 231 252 263 262 280 283 284 281 227 225 254 256 261 265 263 246 217 215 222 236 253 248 210 215 278 299 301 278
84 73 76 116 118 123 127 139 141 172 251 157 149 154 186 219 239 265 261 268 286 290 278 249 234 238 245 254 255 252 250 243 237 235 217 215 227 234 217 242 268 281 284
99 75 59 116 131 137 133 143 151 198 280 254 205 204 216 211 211 229 235 245 253 257 256 252 248 243 245 246 248 255 264 256 249 244 243 233 233 225 216 227 253 266 283
123 132 167 157 149 153 154 150 148 165 264 262 248 229 222 215 224 223 222 230 235 235 238 240 246 249 255 259 262 267 269 271 260 263 261 256 254 235 218 211 216 267 288
84 81 116 141 156 159 170 169 162 171 239 255 252 232 235 228 236 238 228 231 244 250 255 256 264 269 264 260 261 266 271 278 275 274 272 263 259 254 244 222 200 199 249
39 63 81 102 195 187 173 122 145 197 259 275 257 236 230 241 249 241 233 231 243 251 260 261 264 275 284 285 278 282 283 284 285 279 284 279 270 267 256 235 223 204 212
22 29 357 291 268 159 132 129 157 65 309 283 255 236 259 266 266 246 233 236 240 248 246 250 265 287 297 300 297 290 291 287 288 292 287 283 277 270 269 256 239 229 207
12 34 48 31 14 16 155 161 276 281 275 270 292 260 265 267 270 269 266 257 259 265 259 261 292 303 310 313 295 283 292 287 288 294 300 295 291 281 273 265 258 247 226
359 25 32 28 12 352 327 283 240 252 253 271 274 287 283 274 256 256 264 277 279 292 292 278 287 300 306 311 299 281 278 276 275 276 275 277 280 285 280 271 267 264 261
345 6 8 358 339 336 338 307 286 259 246 241 247 267 265 261 250 250 258 265 277 293 292 281 277 282 292 301 299 296 292 290 287 282 274 271 263 265 273 276 269 265 273
328 317 332 338 334 344 335 324 293 283 266 252 252 265 263 263 260 260 256 267 290 282 276 289 304 303 302 301 305 298 303 300 304 305 296 283 281 281 274 271 265 260 261
317 309 316 311 295 313 331 335 314 293 283 265 269 278 290 298 298 271 280 309 304 290 296 302 296 313 312 316 318 318 304 299 300 303 304 302 300 305 304 295 281 257 241
332 303 291 287 278 270 306 321 299 294 302 284 290 282 281 304 283 267 344 353 304 298 297 291 301 300 303 313 312 309 288 289 291 291 299 306 313 312 300 298 299 288 273
335 318 294 297 305 323 348 333 325 298 270 272 287 284 283 254 261 268 269 252 244 277 270 274 274 288 298 309 309 306 309 305 300 293 289 288 295 300 294 296 302 296 288
308 303 272 250 320 339 338 2 347 353 349 314 302 290 267 230 240 251 260 255 247 285 277 271 268 282 294 307 316 316 320 310 305 301 297 288 286 294 303 299 298 302 300
333 329 343 33 15 314 336 19 350 358 331 310 295 289 274 232 223 239 257 263 235 262 291 295 284 273 286 310 325 320 311 314 309 308 305 299 297 305 311 295 288 295 295
319 340 41 1 284 294 359 7 341 309 292 301 295 287 289 247 219 230 257 277 302 334 335 324 310 304 297 311 328 340 340 292 304 308 308 307 315 314 312 302 272 269 283
312 325 12 310 293 294 3 338 304 291 298 312 310 294 295 259 212 184 282 304 340 348 326 330 324 318 316 321 326 331 315 285 273 284 289 295 311 315 311 304 291 296 300
284 304 308 312 301 292 256 266 283 290 299 312 303 297 301 294 274 199 242 296 320 258 282 302 306 310 318 325 332 337 337 330 302 288 299 310 315 316 311 309 311 312 309
280 293 310 310 295 292 278 253 271 280 290 294 298 300 315 313 312 304 244 219 237 246 270 281 289 301 316 321 330 339 341 341 338 326 320 322 322 321 309 315 321 313 291
279 275 268 275 282 289 288 281 281 285 277 289 301 310 321 300 305 303 268 245 245 223 220 247 249 269 298 295 303 321 323 320 320 327 337 346 343 339 336 333 321 316 324
284 295 284 277 280 286 286 285 279 245 195 294 305 304 310 304 284 296 315 311 286 290 274 249 238 256 263 293 322 328 320 319 325 351 342 334 329 322 321 321 322 323 328